Weather Roundup
Issued by NWS Corpus Christi, TX

Home | Current Version | Previous Version | Text Only | Print | Product List | Glossary On
Versions: 1 2 3 4 5 6 7 8 9 10 11 12 13 14 15 16 17 18 19 20 21 22 23 24 25 26 27 28 29 30 31 32 33 34 35 36 37 38 39 40 41 42 43 44 45 46 47 48 49 50
000
ASUS44 KCRP 210610
HRRCRP

SOUTH TEXAS REGIONAL WEATHER ROUNDUP
NATIONAL WEATHER SERVICE CORPUS CHRISTI TX
1200 AM CST SUN DEC 21 2014


TXZ229>244-210700-
...CORPUS CHRISTI AREA OBSERVATIONS...

CITY           SKY/WX    TMP DP  RH WIND       PRES   REMARKS
CORPUS CHRISTI CLOUDY    55  51  86 N8        30.17F
NAS CORPUS CHR CLOUDY    56  53  90 N10       30.16F
ROCKPORT       CLOUDY    55  52  89 N6        30.17F
KINGSVILLE NAS CLOUDY    55  52  89 NE8       30.17F
ALICE          CLOUDY    55  50  83 NE7       30.17F
FALFURRIAS     CLOUDY    55  50  84 N7        30.16S
$$

...VICTORIA AREA OBSERVATIONS...

CITY           SKY/WX    TMP DP  RH WIND       PRES   REMARKS
VICTORIA       CLOUDY    54  52  93 NE5       30.19S
BEEVILLE       CLOUDY    53  52  96 CALM      30.18R
PLEASANTON     CLOUDY    53  48  83 CALM      30.18F
SAN ANTONIO    CLOUDY    53  47  79 E3        30.17F
$$

...LAREDO AREA OBSERVATIONS...

CITY           SKY/WX    TMP DP  RH WIND       PRES   REMARKS
LAREDO         NOT AVBL
COTULLA        CLOUDY    53  45  74 E3        30.18S
DEL RIO        CLOUDY    51  46  83 SE13      30.13F
MCALLEN        CLOUDY    56  51  84 N8        30.16S
HEBBRONVILLE   CLOUDY    52  49  90 NE5       30.17S FOG
$$

...OTHER TEXAS OBSERVATIONS...

CITY           SKY/WX    TMP DP  RH WIND       PRES   REMARKS
BROWNSVILLE    CLOUDY    58  54  86 NW7       30.12F
HOUSTON        CLOUDY    51  47  86 NE7       30.18F
COL. STATION   CLOUDY    50  45  83 NE5       30.18F
AUSTIN         CLOUDY    50  48  93 CALM      30.17S
WACO           CLOUDY    48  46  93 E5        30.17F
FORT WORTH     CLOUDY    47  44  90 SE3       30.18S
WICHITA FALLS  CLOUDY    45  39  79 SE15      30.11F
LUBBOCK        CLOUDY    43  41  93 S16       30.01F FOG
EL PASO        CLOUDY    44  29  55 S5        30.10S
$$

...MARINE OBSERVATIONS...

STATION/POSITION TIME  SKY/WX   TEMP    WIND        PRES    VSBY  WAVE   SWELL
                                AIR SEA DIR/SP/G                  HT/PER HT/PER
                 (UTC)          (F)     (DEG/KT/KT) (MB)    (MI)  (FT/S) (FT/S)
PORT ARANSAS     0600            56 63  360/  8/  9 1021.6F
BUOY 90 E PORT A 0600            63 72   30/ 16/ 17 1019.9F         4/ 7
BUOY 45 SE BAFFI 0600            65 73   20/ 16/ 17 1019.5F         5/ 7
BUOY 200 E PT IS 0600            71 73   50/ 12/ 14 1017.7F         4/ 6   3/ 6
BUOY 15 E GALVES 0600            58 64   60/ 12/ 14 1020.5F         2/ 6   2/ 6
$$


USA.gov is the U.S. government's official web portal to all federal, state and local government web resources and services.